Weather Roundup
Issued by NWS

Home | Current Version | Previous Version | Graphics & Text | Print | Product List | Glossary Off
Versions: 1 2 3 4 5 6 7 8 9 10 11 12 13 14 15 16 17 18 19 20 21 22 23 24 25 26 27 28 29 30 31 32 33 34 35 36 37 38 39 40 41 42 43 44 45 46 47 48 49 50

000
NZUS93 KARX 020359
HRRWXR

CURRENT HOURLY OBSERVATIONS ACROSS
MUCH OF THE UPPER MISSISSIPPI VALLEY
NATIONAL WEATHER SERVICE LA CROSSE WI
1100 PM CDT WED JUL 01 2015


...SOUTHEAST MINNESOTA...


CITY           SKY/WX    TMP DP  RH WIND       PRES   REMARKS
ROCHESTER      CLEAR     57  51  80 NE5       30.03S
ROCHESTER/MAYO FAIR      59  53  79 CALM      30.03S
WINONA         CLEAR     55  55 100 CALM      30.02S
AUSTIN         CLEAR     54  52  94 CALM      30.02S
ALBERT LEA     CLEAR     55  52  88 CALM      30.02S
DODGE CENTER   CLEAR     55  52  88 NE3       30.02F
PRESTON        CLEAR     55  52  90 N3        30.03S
OWATONNA       CLEAR     55  52  88 E3        30.02F
FARIBAULT      CLEAR     54  52  94 CALM      30.02F
$$

...ELSEWHERE IN MINNESOTA...


CITY           SKY/WX    TMP DP  RH WIND       PRES   REMARKS
MINNEAPOLIS    PTCLDY    64  53  67 CALM      30.01F
INTNL FALLS    PTCLDY    57  55  93 SE3       29.97R
DULUTH         PTCLDY    59  50  72 SE3       30.02R
RED WING       CLEAR     57  55  94 CALM      30.01S
REDWOOD FALLS  FAIR      61  52  72 E3        30.01R
MANKATO        CLEAR     61  46  59 E6        30.01S
WORTHINGTON    PTCLDY    59  52  77 E5        30.01R
FAIRMONT       CLEAR     55  48  76 E5        30.00S
$$

...SOUTHWEST WISCONSIN...


CITY           SKY/WX    TMP DP  RH WIND       PRES   REMARKS
LA CROSSE      CLEAR     57  54  89 CALM      30.01S
PRAIRIE DU CHI CLEAR     55  52  89 CALM      30.00S
BOSCOBEL       CLEAR     51  49  92 CALM      30.01S
LONE ROCK      NOT AVBL
PLATTEVILLE    CLEAR     58  54  84 NE6       30.00S
FORT MC COY    CLEAR     51  49  93 CALM      30.03R
VIROQUA        FAIR      56  52  84 CALM      30.02S
WIS DELLS      CLEAR     55  50  84 CALM      30.02S
$$

...ELSEWHERE IN WISCONSIN...


CITY           SKY/WX    TMP DP  RH WIND       PRES   REMARKS
MILWAUKEE      PTCLDY    53  49  86 N6        30.03S
MADISON        CLEAR     58  53  84 SE7       30.01S
GREEN BAY      CLEAR     55  48  77 CALM      30.04R
EAU CLAIRE     NOT AVBL
BLACK RVR FLS  NOT AVBL
MEDFORD        CLEAR     54  51  89 CALM      30.03S
WAUSAU         CLEAR     60  46  59 CALM      30.01S
WIS RAPIDS     CLEAR     54  50  86 CALM      30.02S
MARSHFIELD     CLEAR     57  49  74 CALM      30.02S
RICE LAKE      CLEAR     58  56  91 CALM      30.04R
$$

...NORTHEAST IOWA...


CITY           SKY/WX    TMP DP  RH WIND       PRES   REMARKS
DECORAH          N/A    N/A N/A N/A MISG        N/A
MASON CITY     CLEAR     53  50  89 NE7       30.03R
CHARLES CITY   NOT AVBL
OELWEIN        CLOUDY    57  55  94 NE6       30.00S
$$

...ELSEWHERE IN IOWA...


CITY           SKY/WX    TMP DP  RH WIND       PRES   REMARKS
DES MOINES     MOCLDY    67  57  70 E9        29.95R
IOWA CITY      MOCLDY    64  55  72 NE7       29.98R
FORT DODGE     CLEAR     57  54  88 E8        29.99S
$$

...NORTHERN ILLINOIS...


CITY           SKY/WX    TMP DP  RH WIND       PRES   REMARKS
CHICAGO-OHARE  MOCLDY    56  50  80 NE9       30.00S
CHICAGO-MIDWAY CLOUDY    58  51  78 NE9       29.99F
MOLINE         MOCLDY    66  53  63 NE10      29.96R
ROCKFORD       PTCLDY    58  51  78 E6        30.03R
PEORIA         MOCLDY    72  61  68 E12       29.94S
$$

NOTE: "FAIR" INDICATES FEW OR NO CLOUDS BELOW 12,000 FEET WITH NO
SIGNIFICANT WEATHER AND/OR OBSTRUCTIONS TO VISIBILITY. WIND
SPEEDS ARE IN MILES-PER-HOUR.



USA.gov is the U.S. government's official web portal to all federal, state and local government web resources and services.